Home > Weather > Wiesbaden > Past weeks

Flag for Germany Past Weather in Wiesbaden, Hesse, Germany — Yesterday and Last 2 Weeks

Now
77 °F

Scattered clouds.


Feels Like: 79 °F
Forecast: 61 / 76 °F
Wind: 9 mph from Northwest

Location: Wiesbaden Airport

Current Time: Jul 29, 2016 at 8:04:31 PM

Latest Report: Jul 29, 2016 at 6:58 PM


Visibility: N/A

Pressure: 29.88 "Hg

Humidity: 47%

Dew Point: 55 °F

Location of WiesbadenLocation

Past Weather in Wiesbaden — Graph

°F

Wiesbaden Temperature Yesterday

Maximum temperature yesterday: 77 °F (at 4:58 PM)
Minimum temperature yesterday: 62 °F (at 5:58 AM)
Average temperature yesterday: 69 °F

High & Low Weather Summary for the Past Weeks

 TemperatureHumidityPressure
High93 °F (Jul 20, 5:58 PM)88% (Jul 21, 5:58 AM)30.31 "Hg (Jul 21, 5:58 AM)
Low52 °F (Jul 16, 4:58 AM)24% (Jul 19, 4:58 PM)29.87 "Hg (Jul 20, 7:58 PM)
Average71 °F60%30.08 "Hg
* Reported Jul 14 6:58 PM — Jul 29 6:58 PM, Wiesbaden, Weather by CustomWeather, © 2016

Note: Actual official high and low records may vary slightly from our data, if they occured in-between our weather recording intervals... More about our weather records

Advertising

Wiesbaden Weather History for the Previous 24 Hours

Scroll right to see more
 ConditionsComfort  
Time TempWeatherWind HumidityBarometerVisibility
6:58 PM
Fri, Jul 29
77 °FScattered clouds.9 mph47%29.88 "HgN/A
5:58 PM77 °FBroken clouds.15 mph42%29.88 "HgN/A
4:58 PM79 °FBroken clouds.15 mph42%29.89 "HgN/A
3:58 PM78 °FBroken clouds.17 mph44%29.90 "HgN/A
2:58 PM77 °FBroken clouds.20 mph48%29.90 "HgN/A
1:58 PM74 °FPartly sunny.5 mph54%29.92 "HgN/A
12:58 PM72 °FPartly sunny.3 mph59%29.94 "HgN/A
11:58 AM70 °FMore clouds than sun.6 mph69%29.96 "HgN/A
11:04 AM68 °FBroken clouds.6 mph69%29.98 "Hg4 mi
11:01 AM68 °FPartly sunny.2 mph73%29.98 "Hg4 mi
9:58 AM64 °FMore clouds than sun.6 mph78%29.99 "HgN/A
8:58 AM64 °FLight rain. Mostly cloudy.8 mph83%29.98 "HgN/A
7:58 AM65 °FBroken clouds.6 mph77%29.97 "HgN/A
6:58 AM64 °FOvercast.5 mph83%29.96 "HgN/A
5:58 AM63 °FOvercast.3 mph84%29.96 "HgN/A
4:58 AM63 °FPassing clouds.2 mph85%29.96 "HgN/A
2:58 AM64 °FOvercast.5 mph83%29.96 "HgN/A
9:58 PM
Thu, Jul 28
65 °FPartly sunny.2 mph83%29.97 "HgN/A
8:58 PM66 °FOvercast.6 mph82%29.96 "HgN/A
Weather by CustomWeather, © 2016

See weather overviewHow to use our weather pages